This demonstration page uses our WeatherBlox Daily Observations layout. Learn more.

Left ArrowRight Arrow

Hourly Observations for August 26, 2020

Temp ( °F °C ) Dew Point ( °F °C ) Humidity (%) Winds ( mph kmh ) Pressure ( in mb ) Visibility ( mi km ) Precip ( " mm )
12:15 am 00:15 Clear 69 20.5 56 13.6 65 65 S 8 13 29.86 1011 10 16 N/A
12:35 am 00:35 Clear 70 21.3 56 13.5 61 61 S 7 11 29.87 1011 10 16 N/A
12:55 am 00:55 Clear 69 20.7 56 13.6 64 64 S 7 11 29.86 1011 10 16 N/A
1:15 am 01:15 Clear 69 20.5 57 13.8 66 66 S 8 13 29.86 1011 10 16 N/A
1:35 am 01:35 Clear 69 20.7 57 13.9 65 65 S 8 13 29.87 1012 10 16 N/A
1:55 am 01:55 Clear 70 21 57 13.8 64 64 S 7 11 29.87 1011 10 16 N/A
2:15 am 02:15 Clear 69 20.8 57 14 65 65 S 8 13 29.86 1011 10 16 N/A
2:35 am 02:35 Clear 70 21 57 14 64 64 S 9 15 29.87 1011 10 16 N/A
2:55 am 02:55 Clear 69 20.4 57 14 67 67 S 8 13 29.85 1011 10 16 N/A
3:15 am 03:15 Clear 68 20.2 57 14 68 68 S 9 15 29.86 1011 10 16 N/A
3:35 am 03:35 Clear 68 20.2 57 14 68 68 S 9 15 29.86 1011 10 16 N/A
3:55 am 03:55 Clear 69 20.3 57 14.1 68 68 S 10 17 29.86 1011 10 16 N/A
4:15 am 04:15 Clear 68 20.2 57 14 68 68 S 9 15 29.86 1011 10 16 N/A
4:35 am 04:35 Clear 68 20.1 57 14 68 68 SSW 9 15 29.86 1011 10 16 N/A
4:55 am 04:55 Clear 68 19.8 57 14 69 69 S 8 13 29.86 1011 10 16 N/A
5:15 am 05:15 Clear 67 19.7 57 14 70 70 S 7 11 29.85 1011 10 16 N/A
5:35 am 05:35 Clear 66 18.8 57 14.1 74 74 S 7 11 29.86 1011 10 16 N/A
5:55 am 05:55 Clear 66 18.7 57 14.1 75 75 S 8 13 29.86 1011 10 16 N/A
6:15 am 06:15 Clear 65 18.5 57 14.1 76 76 S 9 15 29.86 1011 10 16 N/A
6:35 am 06:35 Clear 65 18.5 58 14.2 76 76 S 9 15 29.87 1012 10 16 N/A
6:55 am 06:55 Clear 66 19 57 14.1 73 73 S 10 17 29.87 1011 10 16 N/A
7:15 am 07:15 Sunny 65 18.6 57 14.1 75 75 S 9 15 29.88 1012 10 16 N/A
7:35 am 07:35 Sunny 67 19.2 57 14.1 72 72 S 10 17 29.88 1012 10 16 N/A
7:55 am 07:55 Sunny 68 20 57 14.1 69 69 S 8 13 29.88 1012 10 16 N/A
8:15 am 08:15 Sunny 69 20.5 58 14.3 68 68 S 10 17 29.87 1012 10 16 N/A
8:35 am 08:35 Sunny 70 21.1 58 14.5 66 66 S 9 15 29.86 1011 10 16 N/A
8:55 am 08:55 Sunny 72 22 58 14.7 63 63 S 10 17 29.85 1011 10 16 N/A
9:15 am 09:15 Sunny 73 23 59 14.9 60 60 S 14 22 29.84 1011 10 16 N/A
9:35 am 09:35 Sunny 75 24 58 14.7 56 56 S 13 20 29.82 1010 10 16 N/A
9:55 am 09:55 Sunny 77 25 58 14.6 53 53 SSW 16 26 29.82 1010 10 16 N/A
10:15 am 10:15 Sunny 78 25.7 58 14.7 51 51 SSW 14 22 29.80 1009 10 16 N/A
10:35 am 10:35 Sunny 80 26.8 59 14.9 48 48 SSW 20 31 29.78 1009 10 16 N/A
10:55 am 10:55 Sunny 82 27.7 58 14.6 45 45 SSW 17 28 29.78 1008 10 16 N/A
11:15 am 11:15 Sunny 83 28.6 58 14.3 42 42 SSW 21 33 29.77 1008 10 16 N/A
11:35 am 11:35 Sunny 85 29.5 58 14.6 40 40 S 15 24 29.75 1008 10 16 N/A
11:55 am 11:55 Sunny 87 30.3 58 14.3 38 38 SSW 14 22 29.75 1007 10 16 N/A
12:15 pm 12:15 Sunny 88 31.1 56 13.4 34 34 SSW 20 31 29.72 1006 10 16 N/A
12:35 pm 12:35 Sunny 89 31.9 56 13.6 33 33 SSW 23 37 29.70 1006 10 16 N/A
12:55 pm 12:55 Sunny 90 32.2 57 13.9 33 33 S 18 30 29.70 1006 10 16 N/A
1:15 pm 13:15 Sunny 91 32.5 56 13.4 31 31 S 21 33 29.70 1006 10 16 N/A
1:35 pm 13:35 Sunny 91 33 57 14 32 32 SSW 17 28 29.70 1006 10 16 N/A
1:55 pm 13:55 Sunny 92 33.4 56 13.1 29 29 S 16 26 29.68 1005 10 16 N/A
2:15 pm 14:15 Sunny 93 33.7 56 13.3 29 29 SSW 20 31 29.67 1005 10 16 N/A
2:35 pm 14:35 Sunny 93 33.8 56 13.4 29 29 SSW 16 26 29.67 1005 10 16 N/A
2:55 pm 14:55 Sunny 93 34 57 13.8 29 29 SSW 16 26 29.68 1005 10 16 N/A
3:15 pm 15:15 Sunny 94 34.3 57 14.1 30 30 SSW 15 24 29.67 1005 10 16 N/A
3:35 pm 15:35 Sunny 94 34.4 58 14.2 30 30 S 17 28 29.66 1005 10 16 N/A
3:55 pm 15:55 Sunny 95 34.8 57 14.1 29 29 S 16 26 29.66 1004 10 16 N/A
4:15 pm 16:15 Sunny 94 34.6 58 14.4 30 30 S 15 24 29.63 1004 10 16 N/A
4:35 pm 16:35 Sunny 95 34.9 58 14.6 29 29 S 12 19 29.64 1004 10 16 N/A
4:55 pm 16:55 Sunny 94 34.5 58 14.3 30 30 S 13 20 29.63 1004 10 16 N/A
5:15 pm 17:15 Sunny 94 34.3 58 14.2 30 30 S 10 17 29.64 1004 10 16 N/A
5:35 pm 17:35 Sunny 93 34.1 59 14.9 31 31 S 9 15 29.63 1003 10 16 N/A
5:55 pm 17:55 Sunny 93 33.8 58 14.3 31 31 S 10 17 29.62 1003 10 16 N/A
6:15 pm 18:15 Sunny 92 33.2 60 15.3 34 34 S 9 15 29.62 1003 10 16 N/A
6:35 pm 18:35 Sunny 91 32.5 60 15.4 36 36 S 9 15 29.63 1003 10 16 N/A
6:55 pm 18:55 Sunny 90 32 60 15.3 36 36 S 8 13 29.63 1003 10 16 N/A
7:15 pm 19:15 Sunny 88 31.1 62 16.6 42 42 SSE 3 6 29.64 1004 10 16 N/A
7:35 pm 19:35 Sunny 86 30.1 62 16.7 44 44 SSE 5 7 29.65 1004 10 16 N/A
7:55 pm 19:55 Sunny 84 29.1 62 16.7 47 47 SSE 6 9 29.66 1004 10 16 N/A
8:15 pm 20:15 Sunny 81 27 63 17.4 56 56 SSE 7 11 29.67 1005 10 16 N/A
8:35 pm 20:35 Clear 79 26.3 62 16.9 56 56 SSE 7 11 29.68 1005 10 16 N/A
8:55 pm 20:55 Clear 78 25.3 62 16.5 58 58 SSE 6 9 29.69 1005 10 16 N/A
9:15 pm 21:15 Clear 76 24.7 61 16.3 60 60 SSE 6 9 29.70 1006 10 16 N/A
9:35 pm 21:35 Clear 76 24.3 61 16.3 61 61 SSE 7 11 29.71 1006 10 16 N/A
9:55 pm 21:55 Clear 76 24.4 61 16 60 60 SSE 7 11 29.71 1006 10 16 N/A
10:15 pm 22:15 Clear 75 23.8 60 15.8 61 61 SSE 7 11 29.73 1007 10 16 N/A
10:35 pm 22:35 Clear 75 23.7 60 15.7 61 61 SSE 6 9 29.73 1007 10 16 N/A
10:55 pm 22:55 Clear 74 23.1 61 15.9 64 64 SSE 6 9 29.74 1007 10 16 N/A
11:15 pm 23:15 Clear 73 23 61 15.9 64 64 S 6 9 29.74 1007 10 16 N/A
11:35 pm 23:35 Clear 73 22.7 61 16 66 66 S 7 11 29.75 1007 10 16 N/A
11:55 pm 23:55 Clear 73 22.5 60 15.8 66 66 S 6 9 29.76 1008 10 16 N/A

Powered by AerisWeather